Simultaneous Nadir Overpasses (SNOs) Predictions

Prediction of SNOs between LANDSAT-8 and TERRA Satellite Orbit:

Table of predicted SNOs for the next 14.0 days since TLE Epoch: 3/23/2024
Index Date (LANDSAT-8) Time (LANDSAT-8) Lat,Lon (LANDSAT-8) SZA (LANDSAT-8 ) Date (TERRA) Time (TERRA) Lat,Lon (TERRA) SZA (TERRA ) Distance(km) Time Diff (sec)
1 04/05/2024 23:33:29 81.79,-103.06 80.65 04/05/2024 23:34:40 81.79,-103.12 80.69 1.02 71
2 04/06/2024 00:22:56 -81.79, 64.42 99.38 04/06/2024 00:24:01 -81.79, 64.58 99.33 2.45 65
3 04/06/2024 01:12:22 81.79,-127.83 80.62 04/06/2024 01:13:23 81.79,-127.89 80.65 0.88 61
4 04/06/2024 02:01:49 -81.79, 39.65 99.42 04/06/2024 02:02:44 -81.79, 39.81 99.36 2.58 55
5 04/06/2024 02:51:14 81.78,-152.19 80.64 04/06/2024 02:52:05 81.78,-152.24 80.67 0.79 51
6 04/06/2024 03:40:41 -81.78, 15.29 99.39 04/06/2024 03:41:26 -81.78, 15.46 99.35 2.71 45



Historial Predications of SNOs between LANDSAT-8 and TERRA
